St. Cloud, MN

9:30 PM CDT on June 24, 2018 (GMT -0500)
Saint Cloud Regional

Weather History for KSTC - September, 2017

Change the Weather History Date:

Thursday, September 14, 2017

  Actual Average Record
Temperature  
Mean Temperature 74 °F 59 °F  
Max Temperature 88 °F 71 °F 95 °F (1939)
Min Temperature 59 °F 48 °F 31 °F (1996)
Degree Days  
Heating Degree Days 0 7  
Month to date heating degree days 46 69  
Since 1 July heating degree days 86 127  
Cooling Degree Days 9 1  
Month to date cooling degree days 36 24  
Year to date cooling degree days 326 453  
Growing Degree Days 23 (Base 50)    
Moisture  
Dew Point 62 °F    
Average Humidity 72    
Maximum Humidity 100    
Minimum Humidity 43    
Precipitation  
Precipitation 0.00 in 0.11 in 1.75 in (1914)
Month to date precipitation 0.18 1.76  
Year to date precipitation 21.11 21.34  
Snow  
Snow 0.00 in 0.00 in 0.00 in ()
Month to date snowfall 0.0 0.0  
Since 1 July snowfall 0.0 0.0  
Since 1 September snowfall 0.0 0.0  
Snow Depth 0.00 in    
Sea Level Pressure  
Sea Level Pressure 29.69 in    
Wind  
Wind Speed 7 mph (SE)    
Max Wind Speed 16 mph    
Max Gust Speed 21 mph    
Visibility 4 miles    
Events Fog    
T = Trace of Precipitation, MM = Missing Value Source: NWS Daily Summary

Daily Weather History Graph

Daily Weather History Graph

Search for Another Location

Airport or City:

Astronomy

Sep. 14, 2017 Rise Set
Actual Time 6:53 AM CDT 7:28 PM CDT
Civil Twilight 6:23 AM CDT 7:58 PM CDT
Nautical Twilight 5:48 AM CDT 8:33 PM CDT
Astronomical Twilight 5:11 AM CDT 9:10 PM CDT
Moon 12:38 AM CDT (9/14) 3:59 PM CDT (9/14)
Length of Visible Light 13h 34m
Length of Day
12h 34m
Waning Crescent, 34% of the Moon is Illuminated
Sep 14
Waning Crescent
Sep 20
New
Sep 27
First Quarter
Oct 5
Full
Oct 12
Last Quarter

Hourly Weather History & Observations

Time (CDT) Temp. Heat Index Dew Point Humidity Pressure Visibility Wind Dir Wind Speed Gust Speed Precip Events Conditions
12:07 AM 63.0 °F - 63.0 °F 100% 29.67 in 2.5 mi Calm Calm - N/A   Clear
12:25 AM 63.0 °F - 63.0 °F 100% 29.68 in 4.0 mi Calm Calm - N/A   Clear
12:53 AM 62.1 °F - 62.1 °F 100% 29.69 in 5.0 mi Calm Calm - N/A   Clear
1:08 AM 62.1 °F - 62.1 °F 100% 29.68 in 1.8 mi Calm Calm - N/A   Clear
1:20 AM 61.0 °F - 61.0 °F 100% 29.68 in 0.8 mi Calm Calm - N/A   Clear
1:25 AM 61.0 °F - 61.0 °F 100% 29.68 in 2.0 mi Calm Calm - N/A   Clear
1:33 AM 62.1 °F - 62.1 °F 100% 29.68 in 4.0 mi SE 4.6 mph - N/A   Clear
1:43 AM 61.0 °F - 61.0 °F 100% 29.68 in 2.5 mi SE 4.6 mph - N/A   Clear
1:51 AM 60.8 °F - 60.8 °F 100% 29.68 in 4.0 mi Calm Calm - N/A   Clear
1:53 AM 60.1 °F - 60.1 °F 100% 29.69 in 4.0 mi Calm Calm - N/A   Clear
2:00 AM 61.0 °F - 61.0 °F 100% 29.68 in 1.8 mi Calm Calm - N/A   Clear
2:13 AM 61.0 °F - 61.0 °F 100% 29.68 in 3.0 mi Calm Calm - N/A   Clear
2:42 AM 61.0 °F - 61.0 °F 100% 29.68 in 2.0 mi SSE 3.5 mph - N/A   Partly Cloudy
2:45 AM 61.0 °F - 61.0 °F 100% 29.68 in 1.0 mi SE 3.5 mph - N/A   Mist
2:53 AM 61.0 °F - 61.0 °F 100% 29.68 in 1.0 mi Calm Calm - N/A   Mist
3:04 AM 60.1 °F - 60.1 °F 100% 29.67 in 0.5 mi Calm Calm - N/A Fog Fog
3:12 AM 61.0 °F - 61.0 °F 100% 29.67 in 0.2 mi Calm Calm - N/A Fog Fog
3:21 AM 61.0 °F - 61.0 °F 100% 29.67 in 1.2 mi Calm Calm - N/A   Mostly Cloudy
3:23 AM 61.0 °F - 61.0 °F 100% 29.67 in 3.0 mi Calm Calm - N/A   Mostly Cloudy
3:35 AM 61.0 °F - 61.0 °F 100% 29.67 in 1.8 mi Calm Calm - N/A   Mostly Cloudy
3:42 AM 59.0 °F - 59.0 °F 100% 29.67 in 1.0 mi SE 4.6 mph - N/A   Mist
3:45 AM 59.0 °F - 59.0 °F 100% 29.67 in 0.8 mi SSE 4.6 mph - N/A   Mist
3:53 AM 61.0 °F - 61.0 °F 100% 29.68 in 0.5 mi SE 5.8 mph - N/A Fog Fog
4:02 AM 63.0 °F - 63.0 °F 100% 29.68 in 0.2 mi SE 6.9 mph - N/A Fog Fog
4:23 AM 63.0 °F - 63.0 °F 100% 29.68 in 1.0 mi SE 6.9 mph - N/A   Mist
4:42 AM 61.0 °F - 61.0 °F 100% 29.68 in 0.5 mi SE 5.8 mph - N/A Fog Fog
4:50 AM 60.8 °F - 60.8 °F 100% 29.68 in 0.5 mi SE 5.8 mph - N/A Fog Fog
4:53 AM 61.0 °F - 61.0 °F 100% 29.69 in 0.5 mi SE 4.6 mph - N/A Fog Fog
5:19 AM 60.1 °F - 60.1 °F 100% 29.69 in 0.5 mi SSE 4.6 mph - N/A Fog Fog
5:36 AM 63.0 °F - 63.0 °F 100% 29.69 in 1.2 mi SE 3.5 mph - N/A   Scattered Clouds
5:40 AM 63.0 °F - 63.0 °F 100% 29.69 in 3.0 mi SE 3.5 mph - N/A   Scattered Clouds
5:53 AM 60.1 °F - 60.1 °F 100% 29.70 in 2.5 mi SE 4.6 mph - N/A   Partly Cloudy
6:04 AM 59.0 °F - 59.0 °F 100% 29.69 in 1.0 mi SE 5.8 mph - N/A   Mist
6:11 AM 60.1 °F - 60.1 °F 100% 29.69 in 0.2 mi SE 6.9 mph - N/A Fog Fog
6:53 AM 60.1 °F - 60.1 °F 100% 29.70 in 0.2 mi SE 5.8 mph - N/A Fog Fog
7:34 AM 62.1 °F - 62.1 °F 100% 29.70 in 0.5 mi SSE 5.8 mph - N/A Fog Fog
7:48 AM 62.6 °F - 62.6 °F 100% 29.70 in 1.2 mi SE 5.8 mph - N/A   Scattered Clouds
7:53 AM 62.1 °F - 62.1 °F 100% 29.72 in 2.0 mi SE 5.8 mph - N/A   Scattered Clouds
8:25 AM 64.0 °F - 64.0 °F 100% 29.71 in 3.0 mi SSE 4.6 mph - N/A   Clear
8:53 AM 64.9 °F - 64.9 °F 100% 29.73 in 7.0 mi South 5.8 mph - N/A   Clear
9:53 AM 72.0 °F - 66.0 °F 81% 29.72 in 10.0 mi South 9.2 mph - N/A   Clear
10:53 AM 75.9 °F - 64.9 °F 69% 29.72 in 10.0 mi South 8.1 mph - N/A   Clear
11:53 AM 80.1 °F 81.9 °F 64.9 °F 60% 29.71 in 10.0 mi South 5.8 mph - N/A   Clear
12:53 PM 82.9 °F 85.0 °F 66.0 °F 56% 29.70 in 10.0 mi South 8.1 mph - N/A   Clear
1:53 PM 84.9 °F 86.6 °F 64.9 °F 51% 29.70 in 10.0 mi SSE 9.2 mph - N/A   Clear
2:53 PM 86.0 °F 87.3 °F 64.0 °F 48% 29.68 in 10.0 mi SSE 11.5 mph - N/A   Clear
3:53 PM 87.1 °F 87.8 °F 63.0 °F 44% 29.67 in 10.0 mi SSE 15.0 mph - N/A   Clear
4:53 PM 87.1 °F 88.3 °F 64.0 °F 46% 29.68 in 10.0 mi SSE 12.7 mph - N/A   Clear
5:53 PM 84.9 °F 86.1 °F 64.0 °F 49% 29.68 in 10.0 mi SSE 11.5 mph - N/A   Clear
6:53 PM 81.0 °F 83.3 °F 66.9 °F 62% 29.69 in 10.0 mi SSE 4.6 mph - N/A   Clear
7:53 PM 75.9 °F - 66.0 °F 71% 29.70 in 10.0 mi ESE 4.6 mph - N/A   Clear
8:53 PM 73.0 °F - 64.9 °F 76% 29.70 in 10.0 mi East 6.9 mph - N/A   Clear
9:53 PM 72.0 °F - 64.0 °F 76% 29.69 in 10.0 mi SE 6.9 mph - N/A   Clear
10:53 PM 70.0 °F - 64.0 °F 81% 29.70 in 10.0 mi SSE 4.6 mph - N/A   Clear
11:53 PM 69.1 °F - 63.0 °F 81% 29.71 in 10.0 mi ESE 3.5 mph - N/A   Clear